Temperature
10 9 10 12 14 17 18 18 18 18 19 18 18 19 20 21 20 20 18 17 16 14 14 15 16 16 17 17 18 18 18 17 17 16 16 15 15 14 13 13 13 13 13 13
10 9 12 14 14 17 17 17 18 18 17 17 18 19 20 21 19 19 18 17 16 14 13 13 15 16 17 17 17 17 17 17 16 16 15 14 14 13 13 12 12 12 12 12
9 11 12 13 14 15 16 17 18 17 17 17 17 19 20 19 17 16 16 16 15 14 13 13 14 15 16 16 16 16 16 16 15 14 14 13 13 12 12 12 12 11 11 11
10 12 12 12 14 16 16 17 17 16 16 17 17 18 20 20 17 16 16 15 15 13 13 12 13 14 15 15 15 15 15 14 14 13 13 13 12 12 11 11 11 11 11 11
9 10 11 12 14 16 16 16 16 16 16 16 17 17 20 19 18 17 16 15 14 13 12 12 13 14 14 14 14 14 14 13 13 13 12 12 12 11 11 11 11 10 10 10
10 10 12 14 15 16 15 15 15 15 15 15 17 18 19 20 19 18 16 15 13 12 11 11 13 13 13 13 13 13 13 13 12 12 12 12 11 11 10 10 10 10 10 9
8 9 12 14 13 13 16 14 12 13 15 16 17 17 19 20 19 18 16 15 13 12 11 11 12 12 13 12 12 12 12 12 12 12 11 11 11 10 10 10 10 10 9 9
8 10 12 14 14 13 15 15 15 15 16 17 15 17 20 18 17 16 16 15 13 12 11 11 11 12 12 12 12 11 11 12 11 11 11 11 10 10 10 9 9 9 8 7
9 9 12 13 14 15 14 14 16 17 16 17 18 18 19 16 16 15 16 15 13 12 11 10 11 11 11 11 11 11 11 11 11 10 10 10 9 9 9 8 8 7 6 6
11 9 11 11 12 12 14 14 14 15 16 17 18 18 19 19 18 15 15 15 13 11 10 10 10 10 11 11 10 10 10 10 10 9 9 9 8 8 7 7 7 6 5 5
12 11 10 12 12 13 13 13 14 15 16 17 18 19 19 18 17 16 15 15 13 11 10 10 10 10 10 10 10 9 9 9 9 8 8 8 7 7 6 6 5 5 4 4
13 14 12 12 13 15 16 15 15 15 15 17 18 19 17 16 15 15 15 14 13 11 10 10 10 10 10 9 9 9 8 8 8 8 7 7 6 6 5 5 4 4 3 3
14 15 13 12 13 13 14 15 16 16 16 16 17 18 16 16 15 14 14 13 12 11 10 10 10 10 9 9 9 8 8 7 7 7 6 6 5 5 4 4 3 3 2 2
14 15 15 15 15 15 14 15 15 16 16 16 17 18 17 16 16 15 14 13 12 11 10 9 9 8 8 8 8 7 7 7 6 6 5 5 4 4 3 3 2 2 1 1
14 15 15 16 15 15 15 15 15 15 16 17 17 17 19 18 17 16 14 13 12 11 9 9 8 8 8 7 7 7 6 6 5 5 4 4 3 3 2 2 1 1 1 0
14 14 14 13 13 15 15 15 15 15 16 17 17 18 19 16 15 15 14 13 12 10 10 9 8 7 7 7 6 6 6 5 4 4 3 3 3 2 1 1 1 0 0 -0
14 14 14 14 13 14 14 15 15 15 16 17 17 18 16 14 14 14 13 12 11 10 10 9 8 7 7 6 6 5 5 4 4 3 3 2 2 1 1 0 -0 -0 -0 -1
14 13 13 13 13 12 17 14 16 16 16 17 17 15 15 15 12 11 11 11 10 11 10 9 8 7 6 5 5 4 4 3 3 2 2 1 1 0 -0 -0 -1 -1 -1 -2
13 12 11 11 12 15 15 12 13 14 15 14 14 13 13 11 10 9 8 9 10 10 10 9 8 7 6 5 4 4 3 3 2 2 1 0 -0 -0 -1 -1 -1 -1 -2 -3
10 10 10 11 13 14 16 13 12 14 15 12 12 12 11 11 13 11 8 9 9 9 9 8 7 5 4 4 3 3 2 2 2 1 0 -0 -1 -1 -1 -1 -2 -2 -3 -4
10 10 11 12 13 15 14 11 12 14 15 11 11 11 11 12 11 9 9 9 9 8 8 7 5 4 4 3 2 2 2 1 1 0 -0 -1 -1 -2 -2 -2 -3 -4 -4 -5
12 12 12 12 12 13 11 11 13 13 9 10 10 10 10 9 9 8 8 8 8 7 7 6 5 4 3 2 2 1 1 0 -0 -1 -1 -1 -2 -2 -3 -3 -4 -4 -5 -6
13 14 13 13 13 10 9 10 10 9 9 9 9 9 9 9 8 8 7 7 7 6 6 5 4 3 2 2 1 0 -0 -1 -1 -1 -1 -2 -2 -3 -3 -4 -4 -5 -6 -7
9 9 10 10 9 8 7 7 7 8 9 9 9 9 9 8 8 7 7 7 6 6 5 4 3 2 1 1 -0 -1 -1 -1 -1 -1 -2 -3 -3 -3 -4 -5 -5 -6 -7 -8
10 9 10 9 8 8 7 7 8 9 9 9 8 8 8 7 7 7 6 6 5 4 4 2 1 1 -0 -1 -1 -1 -1 -1 -2 -2 -3 -3 -4 -4 -5 -6 -6 -7 -8 -9
9 10 11 12 9 9 9 7 8 8 8 8 8 7 7 7 7 6 5 5 4 3 2 1 0 -0 -1 -1 -1 -1 -2 -2 -3 -3 -4 -4 -4 -5 -6 -7 -7 -8 -9 -9
Wind_Speed
18 17 23 26 27 23 20 20 19 16 9 8 13 17 16 15 10 9 9 9 9 8 7 8 8 9 11 12 13 13 12 11 9 9 9 10 10 10 10 11 13 13 13 12
16 25 26 23 24 21 20 19 18 11 6 6 12 17 17 13 9 8 11 13 13 11 10 9 10 11 12 13 14 14 14 13 12 11 10 10 11 10 9 9 11 13 13 12
24 20 22 24 24 22 20 20 17 9 5 6 8 12 9 5 2 4 10 13 14 13 13 12 11 12 12 13 13 13 15 14 14 13 10 9 9 8 8 8 8 10 11 11
24 14 21 25 27 25 20 14 11 8 4 4 2 6 7 6 5 7 12 14 14 13 12 12 12 12 12 11 11 14 14 14 13 11 11 11 9 8 7 6 6 8 10 10
16 15 20 24 28 24 14 12 8 3 4 6 7 7 7 4 7 10 14 15 14 13 13 12 12 12 11 10 11 12 13 13 13 12 12 11 10 8 6 5 6 6 7 9
13 12 16 19 21 18 13 12 7 2 4 7 9 9 6 3 3 11 16 15 14 13 13 13 12 11 11 10 10 10 12 12 12 12 12 11 11 8 7 7 6 6 5 6
11 11 10 16 16 14 15 12 6 6 8 7 5 7 7 1 2 8 18 19 16 15 14 14 13 12 11 10 9 9 11 11 11 11 11 10 9 8 7 6 7 7 6 6
10 8 12 16 14 11 17 16 8 7 8 5 6 7 3 3 0 5 15 18 17 15 14 14 13 12 11 10 9 9 10 10 9 9 9 8 7 6 6 7 6 6 6 6
12 5 7 12 10 14 14 11 4 2 3 4 5 4 3 4 2 5 14 18 18 16 14 14 13 11 11 10 9 8 9 9 8 8 8 8 7 6 6 5 5 5 5 6
8 5 7 7 8 3 8 10 7 6 6 6 4 4 3 3 1 5 14 19 18 16 14 14 13 11 10 9 8 8 8 8 7 6 6 5 6 5 4 4 5 5 6 7
6 6 6 8 10 13 11 10 8 8 4 4 5 4 2 3 4 5 12 18 18 17 16 14 13 11 11 10 9 8 8 7 6 6 5 5 5 4 4 5 6 6 7 8
6 5 7 5 1 12 12 13 12 9 7 5 4 3 3 3 4 4 11 16 16 16 15 14 13 12 11 10 9 8 7 6 6 5 4 4 3 3 4 5 6 7 8 8
8 8 10 7 5 7 12 15 16 10 5 8 7 4 3 1 2 5 11 15 15 15 15 14 13 12 11 10 9 8 7 6 5 4 3 3 3 4 5 6 6 7 8 9
6 7 11 14 10 13 16 18 19 17 11 11 12 10 7 5 6 8 11 14 15 14 14 14 14 13 11 10 9 8 7 6 4 3 2 1 3 4 5 6 7 7 8 9
6 5 7 6 7 15 17 20 21 23 21 15 14 17 15 9 9 10 12 13 13 13 13 15 15 13 12 11 9 8 7 5 4 2 1 1 3 4 6 7 8 8 9 9
9 4 5 4 6 12 14 21 24 25 24 22 18 17 9 6 9 10 11 11 11 11 13 14 15 14 13 12 10 8 7 5 4 2 1 2 4 5 6 8 9 9 10 10
11 6 5 4 5 6 10 19 23 21 23 22 24 22 8 9 12 12 10 9 8 8 10 13 14 13 12 11 10 8 7 5 4 2 1 3 4 6 7 9 9 10 11 11
14 6 2 4 5 8 5 2 16 21 22 20 14 5 14 12 11 8 7 8 7 5 7 10 11 12 11 10 9 8 6 4 3 1 2 3 5 7 8 9 10 11 11 12
6 6 4 3 5 8 4 4 7 11 13 14 14 10 13 14 11 6 5 5 4 4 5 8 10 11 11 10 9 7 5 3 2 1 2 4 6 8 9 11 12 12 13 14
6 8 5 4 5 5 1 5 6 6 6 8 12 15 16 15 11 7 5 5 6 6 7 9 10 11 11 9 8 6 4 3 1 2 4 5 7 9 10 12 13 13 13 14
9 7 11 9 5 6 2 6 9 7 2 12 13 15 14 8 5 8 8 6 7 8 9 10 11 10 9 8 7 5 3 1 1 3 5 6 8 9 11 12 12 13 14 15
14 11 10 7 7 8 6 9 9 2 8 13 14 11 10 10 9 8 7 8 8 9 10 10 9 9 8 7 5 3 2 1 2 4 6 8 9 9 9 11 12 13 14 15
9 8 7 8 6 2 1 2 2 8 13 11 10 10 11 9 7 7 6 7 7 8 9 8 9 8 7 5 4 3 2 1 3 5 7 8 10 9 10 11 12 12 12 12
4 2 5 4 2 1 2 5 7 10 10 10 10 10 8 7 7 6 5 5 6 7 8 8 8 8 7 5 3 2 2 2 4 7 8 9 9 10 11 10 10 11 11 12
7 7 5 4 4 6 4 6 9 10 12 12 10 7 7 7 6 6 5 5 6 7 7 8 8 7 7 6 4 3 2 3 5 8 9 9 9 10 11 10 10 11 11 12
6 7 8 7 12 8 10 10 11 12 10 10 9 6 4 3 3 3 3 4 6 7 8 8 8 7 7 6 4 3 2 4 6 8 8 8 9 9 10 11 11 11 12 17
Wind_Direction
194 207 212 205 206 208 201 207 208 211 201 220 249 262 274 284 261 230 194 173 147 121 102 90 82 80 76 69 66 67 71 78 91 98 99 96 87 81 72 64 59 56 52 47
191 216 216 205 203 205 204 204 206 203 188 237 266 273 275 275 255 224 192 172 155 140 123 102 92 84 79 76 74 73 69 70 74 79 82 88 90 79 74 66 57 50 46 40
200 208 210 203 196 191 196 197 194 179 169 225 276 275 248 206 184 190 178 166 156 148 136 119 102 91 84 77 76 79 78 77 79 88 96 99 93 85 67 56 51 44 42 37
208 217 202 194 193 191 192 189 175 168 219 224 273 287 253 217 200 178 169 165 158 148 138 127 114 100 90 84 80 81 81 80 80 86 89 87 80 74 60 48 46 46 39 33
203 225 208 192 193 193 188 168 174 180 249 271 245 261 269 208 220 189 176 168 161 153 143 132 119 109 101 94 88 86 84 79 77 78 81 84 82 79 68 56 45 36 34 28
210 222 213 194 186 178 142 131 106 106 232 249 232 230 269 215 202 178 176 173 166 156 149 137 127 120 112 104 94 91 89 83 80 79 78 80 82 78 68 50 35 25 22 18
223 234 207 183 160 166 165 150 149 181 208 228 181 222 252 333 197 183 180 178 171 163 159 151 143 135 127 117 106 104 100 93 88 85 82 82 82 75 59 41 30 21 16 12
204 203 183 174 171 170 177 177 184 184 192 182 183 230 241 40 197 200 188 177 170 169 166 159 150 143 137 129 122 118 109 103 99 93 89 82 73 63 53 39 28 21 10 1
198 206 163 155 150 160 169 188 194 139 153 199 200 232 263 149 195 197 187 179 177 173 169 161 154 151 145 138 131 126 120 112 105 97 91 81 70 62 54 42 30 17 3 348
183 168 146 130 120 106 160 151 164 191 192 208 203 219 185 163 229 190 189 185 178 171 170 164 160 154 148 140 134 130 125 119 109 98 87 80 67 53 40 32 25 10 356 347
200 153 137 155 181 171 156 169 174 186 229 214 188 163 131 295 299 220 192 186 176 174 173 169 163 154 148 145 145 140 136 131 116 103 92 80 62 39 26 22 11 358 346 341
213 162 143 151 108 190 187 184 176 182 197 215 213 155 103 289 287 219 180 175 174 175 173 170 162 155 156 157 155 150 148 139 122 107 88 71 51 24 14 11 359 347 341 338
189 165 146 154 169 184 198 195 197 198 192 200 210 200 122 113 130 158 165 169 171 171 171 169 166 166 165 164 162 157 153 142 128 109 83 55 23 6 2 356 347 340 336 330
207 199 203 196 191 183 194 195 200 203 215 217 225 229 189 172 160 159 166 172 174 174 174 175 175 174 171 168 164 160 154 148 135 116 90 27 1 355 349 341 334 332 328 322
226 223 206 200 166 179 196 198 199 209 219 228 232 234 235 216 185 171 168 170 174 175 179 182 183 179 173 168 165 161 157 153 149 150 158 342 343 346 338 331 327 323 318 313
218 212 162 152 172 193 206 207 207 214 220 230 244 246 248 180 170 169 169 169 176 182 186 187 186 181 175 170 165 163 161 160 171 186 239 326 335 337 329 322 317 312 308 308
193 192 185 161 145 172 226 215 210 215 222 226 238 249 187 175 178 173 163 160 164 176 185 188 187 181 174 168 164 165 164 169 181 195 279 323 332 325 317 311 307 308 311 311
190 179 127 122 144 219 223 211 213 220 228 229 239 243 183 175 144 128 130 136 137 158 182 184 177 170 162 156 157 157 162 172 181 214 305 329 321 312 309 308 311 315 315 312
165 132 116 151 214 253 244 176 175 200 229 222 219 177 148 134 126 114 87 95 105 132 161 165 162 157 151 154 156 159 166 174 195 282 321 319 311 308 310 316 320 318 313 310
111 125 149 201 222 240 188 143 157 162 233 183 180 159 151 158 172 156 121 105 104 113 129 137 142 145 148 151 158 171 176 185 235 309 312 308 306 309 315 317 315 312 310 308
162 175 201 211 235 275 126 141 153 188 216 147 155 151 153 159 128 120 126 118 120 124 132 139 143 146 148 153 164 175 178 211 292 302 303 305 310 315 313 311 311 311 310 310
181 184 194 190 215 242 144 155 187 148 130 138 138 138 128 117 116 126 132 135 138 138 143 147 146 143 147 155 163 174 201 258 298 301 304 309 313 312 307 308 310 312 313 315
192 191 182 191 210 59 154 187 125 140 139 136 132 130 130 132 141 142 145 151 158 157 154 154 152 148 151 154 166 197 196 271 295 303 308 310 309 307 306 306 310 314 318 319
180 143 138 160 188 146 131 119 117 125 120 120 123 127 133 139 148 157 164 173 176 172 166 161 162 163 164 163 176 201 217 269 295 304 307 305 305 307 308 308 311 317 320 321
162 160 148 153 146 129 140 138 129 116 113 112 110 113 131 143 159 177 189 193 187 177 174 173 177 177 173 173 190 203 231 278 294 297 297 300 304 306 309 311 313 313 311 312
179 178 179 193 179 167 167 154 142 132 129 130 126 119 106 123 156 170 191 191 185 178 173 174 177 175 172 179 195 211 242 268 282 292 301 306 307 308 311 313 312 307 304 308
Height
1486 1491 1483 1479 1481 1477 1478 1481 1486 1488 1490 1495 1491 1487 1484 1482 1483 1483 1484 1486 1487 1488 1488 1487 1487 1487 1488 1488 1489 1489 1489 1488 1489 1490 1490 1491 1491 1491 1492 1492 1492 1491 1491 1490
1481 1480 1474 1475 1478 1475 1476 1481 1484 1486 1491 1491 1487 1483 1477 1476 1478 1478 1479 1482 1484 1487 1489 1488 1488 1489 1489 1490 1490 1490 1490 1490 1491 1492 1492 1492 1492 1492 1493 1493 1493 1492 1491 1490
1470 1469 1471 1472 1472 1473 1476 1479 1480 1484 1489 1489 1489 1477 1471 1473 1477 1477 1477 1480 1483 1486 1488 1488 1488 1489 1490 1491 1491 1491 1491 1492 1492 1493 1494 1494 1494 1495 1495 1495 1494 1493 1491 1489
1468 1465 1467 1467 1468 1468 1475 1474 1478 1485 1488 1485 1487 1483 1468 1467 1472 1475 1476 1479 1482 1484 1486 1487 1488 1489 1491 1492 1492 1492 1493 1493 1494 1495 1495 1496 1497 1497 1497 1496 1494 1493 1490 1488
1464 1465 1460 1460 1462 1465 1468 1476 1480 1485 1489 1488 1483 1484 1464 1464 1466 1470 1474 1477 1480 1483 1485 1487 1488 1489 1491 1493 1493 1494 1494 1495 1496 1497 1497 1497 1497 1497 1497 1496 1494 1491 1488 1485
1459 1462 1458 1455 1459 1465 1470 1477 1484 1487 1489 1490 1476 1478 1464 1455 1458 1463 1470 1475 1478 1481 1485 1486 1487 1489 1491 1493 1494 1495 1496 1496 1497 1497 1497 1497 1497 1497 1496 1494 1492 1489 1485 1482
1461 1458 1452 1451 1460 1466 1465 1477 1494 1495 1491 1479 1476 1474 1460 1453 1458 1460 1465 1471 1475 1479 1483 1485 1486 1488 1491 1493 1495 1496 1496 1496 1497 1497 1497 1497 1496 1496 1494 1492 1490 1487 1484 1481
1459 1451 1446 1447 1452 1459 1461 1468 1476 1477 1476 1470 1479 1471 1454 1457 1458 1460 1463 1468 1473 1478 1482 1484 1485 1488 1490 1493 1495 1496 1496 1496 1496 1496 1496 1495 1495 1494 1493 1491 1488 1485 1482 1478
1452 1449 1444 1445 1451 1455 1463 1467 1464 1466 1470 1468 1463 1459 1452 1457 1457 1460 1462 1466 1471 1476 1480 1482 1484 1487 1490 1492 1494 1495 1495 1495 1495 1495 1494 1494 1493 1492 1490 1488 1485 1482 1478 1475
1442 1448 1445 1449 1453 1459 1458 1463 1470 1470 1470 1467 1461 1457 1450 1450 1452 1457 1459 1463 1468 1474 1478 1481 1483 1486 1488 1491 1492 1493 1494 1494 1494 1493 1493 1492 1491 1490 1487 1485 1482 1479 1475 1472
1439 1442 1450 1450 1450 1453 1459 1464 1463 1463 1461 1460 1460 1454 1447 1449 1451 1452 1455 1460 1466 1472 1476 1479 1481 1484 1486 1489 1491 1491 1492 1492 1492 1492 1491 1490 1489 1487 1484 1482 1479 1476 1472 1468
1435 1433 1445 1448 1449 1446 1448 1451 1455 1462 1463 1457 1452 1452 1448 1450 1451 1451 1454 1459 1465 1470 1474 1477 1479 1481 1484 1486 1488 1489 1490 1490 1490 1490 1489 1488 1486 1484 1481 1479 1476 1472 1468 1464
1431 1430 1443 1453 1454 1452 1449 1448 1449 1450 1454 1456 1456 1451 1449 1450 1450 1451 1453 1458 1463 1467 1471 1474 1476 1479 1482 1484 1485 1487 1488 1488 1488 1487 1487 1485 1483 1481 1478 1475 1472 1469 1465 1461
1430 1426 1426 1433 1431 1436 1441 1445 1445 1449 1452 1451 1449 1443 1445 1447 1448 1450 1453 1456 1461 1464 1467 1470 1473 1476 1478 1481 1482 1484 1485 1485 1485 1485 1484 1482 1481 1478 1475 1471 1469 1466 1462 1458
1429 1425 1424 1424 1427 1430 1434 1439 1442 1443 1441 1443 1439 1441 1438 1441 1445 1448 1451 1454 1459 1462 1464 1467 1470 1472 1475 1477 1479 1481 1482 1483 1482 1482 1481 1479 1477 1474 1471 1469 1466 1462 1458 1453
1427 1426 1427 1430 1432 1430 1431 1431 1434 1436 1436 1435 1435 1435 1435 1442 1445 1448 1450 1453 1456 1459 1461 1464 1467 1469 1471 1473 1476 1478 1479 1480 1479 1479 1477 1475 1473 1470 1468 1466 1462 1458 1453 1448
1423 1425 1426 1430 1434 1433 1433 1425 1427 1429 1428 1429 1431 1428 1437 1441 1443 1446 1449 1451 1454 1456 1458 1461 1463 1465 1468 1471 1474 1476 1476 1476 1476 1475 1473 1471 1469 1467 1465 1461 1457 1452 1448 1443
1421 1425 1428 1433 1436 1439 1414 1418 1416 1419 1420 1423 1426 1429 1433 1436 1443 1447 1449 1451 1453 1454 1457 1459 1461 1462 1466 1468 1471 1472 1473 1473 1473 1471 1470 1468 1466 1463 1460 1456 1452 1447 1442 1437
1421 1427 1434 1438 1435 1422 1416 1419 1420 1420 1420 1422 1426 1430 1435 1440 1444 1449 1449 1451 1452 1454 1456 1457 1458 1460 1463 1466 1468 1470 1471 1470 1470 1468 1467 1465 1462 1459 1456 1452 1448 1443 1437 1430
1425 1428 1438 1439 1431 1424 1411 1416 1418 1420 1418 1421 1424 1428 1434 1439 1441 1447 1449 1450 1452 1453 1454 1455 1456 1459 1462 1464 1466 1468 1468 1468 1467 1466 1464 1462 1459 1455 1452 1448 1443 1438 1431 1424
1425 1428 1430 1429 1427 1412 1412 1416 1419 1421 1413 1420 1424 1430 1435 1438 1440 1446 1447 1449 1451 1452 1453 1454 1455 1458 1460 1462 1464 1465 1465 1465 1464 1463 1461 1458 1455 1452 1448 1444 1438 1432 1425 1419
1411 1417 1420 1423 1427 1419 1415 1417 1416 1415 1420 1422 1427 1431 1435 1438 1442 1444 1447 1448 1450 1451 1452 1453 1454 1456 1458 1460 1462 1462 1463 1462 1461 1459 1457 1455 1452 1448 1444 1439 1433 1427 1420 1413
1405 1405 1405 1409 1414 1415 1415 1415 1415 1416 1420 1424 1428 1432 1435 1438 1442 1444 1446 1448 1449 1450 1450 1451 1453 1455 1457 1458 1460 1460 1460 1459 1458 1456 1454 1452 1448 1444 1439 1433 1427 1420 1414 1407
1408 1410 1409 1412 1414 1415 1415 1415 1416 1419 1421 1425 1429 1432 1436 1439 1441 1444 1445 1446 1447 1448 1449 1450 1451 1453 1455 1456 1457 1457 1457 1456 1455 1453 1450 1447 1443 1438 1433 1427 1421 1415 1409 1402
1400 1406 1407 1409 1414 1415 1416 1416 1418 1421 1424 1427 1431 1434 1436 1438 1440 1442 1443 1444 1445 1446 1446 1447 1449 1451 1453 1453 1454 1454 1453 1453 1451 1449 1446 1442 1438 1433 1427 1422 1416 1409 1404 1399
1399 1399 1400 1399 1405 1408 1413 1416 1419 1421 1425 1428 1431 1433 1436 1437 1439 1440 1441 1441 1442 1442 1443 1445 1447 1449 1450 1450 1451 1450 1450 1449 1447 1444 1441 1437 1432 1427 1421 1415 1410 1404 1400 1395